Torna al catalogo

ARIANE 1 DEB

LostHEO
NORAD 25821·DEBRIS·🇫🇷 France

Lanciato Mar 5, 1984 da Guiana Space Centre

Loading…

Prossimi Passaggi (prossime 24 ore)

TLE

ObsoletoSource: Space-Track

Epoca: Jul 16, 2020, 10:14 UTC

1 25821U 84023C   20198.42644476 -.00000009  00000-0  00000+0 0  9991
2 25821   7.9170 222.5191 6691923 200.2582 352.4051  2.54590646200880

Traccia ARIANE 1 DEB in tempo reale con AllMySat

Download on the App Store